This demonstration page uses our WeatherBlox Daily Observations layout. Learn more.

Left ArrowRight Arrow

Hourly Observations for May 1, 2017

Temp ( °F °C ) Dew Point ( °F °C ) Humidity (%) Winds ( mph kmh ) Pressure ( in mb ) Visibility ( mi km ) Precip ( " mm )
12:15 am 00:15 Cloudy 33 0.8 32 undefined 94 94 NNW 18 30 29.74 1007 10 16 N/A
12:35 am 00:35 Cloudy 34 1 32 undefined 93 93 NNW 20 31 29.74 1007 10 16 N/A
12:55 am 00:55 Cloudy with Drizzle 33 0.8 32 undefined 94 94 NNW 16 26 29.74 1007 10 16 N/A
1:15 am 01:15 Cloudy with Light Snow 33 0.7 32 undefined 95 95 NNW 16 26 29.74 1007 3 5 0.01 0.25
1:35 am 01:35 Cloudy with Light Rain 34 0.9 32 undefined 94 94 NNW 18 30 29.74 1007 5 8 0.01 0.25
1:55 am 01:55 Cloudy with Light Rain 34 1 32 0.1 94 94 NNW 21 33 29.74 1007 5 8 0.02 0.51
2:15 am 02:15 Cloudy with Light Snow 33 0.7 32 undefined 95 95 NNW 15 24 29.74 1007 3 5 N/A
2:35 am 02:35 Cloudy with Light Snow 33 0.6 32 undefined 96 96 NW 18 30 29.74 1007 3 5 0.02 0.51
2:55 am 02:55 Cloudy with Light Rain 34 0.9 32 0.2 95 95 NNW 18 30 29.74 1007 7 11 0.02 0.51
3:15 am 03:15 Cloudy with Light Rain 34 1.3 33 0.5 94 94 NNW 18 30 29.74 1007 7 11 0.01 0.25
3:35 am 03:35 Cloudy with Light Rain 35 1.5 33 0.3 92 92 NNW 18 30 29.74 1007 7 11 0.02 0.51
3:55 am 03:55 Cloudy with Drizzle 35 1.6 32 undefined 89 89 NNW 12 19 29.74 1007 10 16 0.02 0.51
4:15 am 04:15 Cloudy 35 1.5 32 undefined 90 90 NW 9 15 29.74 1007 10 16 N/A
4:35 am 04:35 Cloudy 35 1.5 32 undefined 90 90 NW 9 15 29.74 1007 10 16 N/A
4:55 am 04:55 Mostly Cloudy 35 1.5 32 -0.1 89 89 NW 9 15 29.77 1008 10 16 N/A
5:15 am 05:15 Partly Cloudy 35 1.5 32 -0.2 89 89 WNW 9 15 29.77 1008 10 16 N/A
5:35 am 05:35 Clear 35 1.5 31 -0.4 87 87 NW 6 9 29.77 1008 10 16 N/A
5:55 am 05:55 Clear 34 1 31 -0.7 89 89 NW 5 7 29.77 1008 10 16 N/A
6:15 am 06:15 Clear 34 1.3 29 -1.5 82 82 NW 13 20 29.77 1008 10 16 N/A
6:35 am 06:35 Clear 34 1.2 28 -2.5 77 77 NW 15 24 29.77 1008 10 16 N/A
6:55 am 06:55 Sunny 34 1.1 27 -3 74 74 NW 15 24 29.77 1008 10 16 N/A
7:15 am 07:15 Sunny 34 1 26 -3.2 74 74 NW 14 22 29.80 1009 10 16 N/A
7:35 am 07:35 Sunny 36 2 26 -3.5 67 67 NW 16 26 29.80 1009 10 16 N/A
7:55 am 07:55 Sunny 37 2.5 26 -3.5 65 65 NW 17 28 29.80 1009 10 16 N/A
8:15 am 08:15 Sunny 36 2 27 -3 70 70 NW 16 26 29.83 1010 10 16 N/A
8:35 am 08:35 Sunny 36 2.2 27 -3 69 69 WNW 15 24 29.83 1010 10 16 N/A
8:55 am 08:55 Sunny 37 3 27 -3 65 65 WNW 16 26 29.83 1010 10 16 N/A
9:15 am 09:15 Sunny 38 3.5 27 -3 63 63 WNW 16 26 29.83 1010 10 16 N/A
9:35 am 09:35 Sunny 39 3.7 27 -3 62 62 WNW 13 20 29.85 1011 10 16 N/A
9:55 am 09:55 Sunny 39 4.1 27 -2.8 61 61 WNW 13 20 29.83 1010 10 16 N/A
10:15 am 10:15 Sunny 40 4.5 27 -2.7 60 60 WNW 15 24 29.83 1010 10 16 N/A
10:35 am 10:35 Sunny 40 4.6 27 -2.6 60 60 WNW 14 22 29.83 1010 10 16 N/A
10:55 am 10:55 Sunny 40 4.3 29 -1.6 66 66 WNW 10 17 29.83 1010 10 16 N/A
11:15 am 11:15 Sunny 41 5 29 -1.4 64 64 WNW 9 15 29.83 1010 10 16 N/A
11:35 am 11:35 Sunny 41 5.1 29 -1.5 63 63 W 14 22 29.83 1010 10 16 N/A
11:55 am 11:55 Sunny 43 5.9 29 -1.4 60 60 W 12 19 29.83 1010 10 16 N/A
12:15 pm 12:15 Sunny 44 6.5 30 -1 59 59 W 12 19 29.83 1010 10 16 N/A
12:35 pm 12:35 Sunny 45 7 32 -0.1 61 61 W 13 20 29.83 1010 10 16 N/A
12:55 pm 12:55 Sunny 47 8.5 32 -0.1 55 55 W 12 19 29.80 1009 10 16 N/A
1:15 pm 13:15 Sunny 48 8.9 34 1 58 58 WSW 9 15 29.80 1009 10 16 N/A
1:35 pm 13:35 Sunny 50 10 35 1.6 56 56 WSW 9 15 29.80 1009 10 16 N/A
1:55 pm 13:55 Sunny 52 11.1 35 1.9 53 53 W 12 19 29.77 1008 10 16 N/A
2:15 pm 14:15 Sunny 55 12.5 37 2.9 52 52 W 10 17 29.77 1008 10 16 N/A
2:35 pm 14:35 Sunny 57 13.8 37 2.5 47 47 W 12 19 29.77 1008 10 16 N/A
2:55 pm 14:55 Sunny 58 14.6 37 2.5 44 44 W 10 17 29.74 1007 10 16 N/A
3:15 pm 15:15 Sunny 59 15.1 32 0.1 36 36 W 10 17 29.74 1007 10 16 N/A
3:35 pm 15:35 Sunny 61 15.9 32 -0.2 34 34 WSW 9 15 29.74 1007 10 16 N/A
3:55 pm 15:55 Sunny 62 16.5 33 0.3 34 34 WSW 8 13 29.74 1007 10 16 N/A
4:15 pm 16:15 Partly Cloudy 63 17 33 0.6 33 33 WSW 9 15 29.74 1007 10 16 N/A
4:35 pm 16:35 Mostly Cloudy 61 16.3 34 1.1 36 36 W 8 13 29.74 1007 10 16 N/A
4:55 pm 16:55 Cloudy 59 15.1 37 2.6 43 43 W 26 43 29.74 1007 10 16 N/A
5:15 pm 17:15 Mostly Cloudy 56 13.2 42 5.7 61 61 W 10 17 29.77 1008 10 16 N/A
5:35 pm 17:35 Mostly Cloudy 57 13.9 43 5.9 59 59 W 10 17 29.74 1007 10 16 N/A
5:55 pm 17:55 Cloudy 57 14.1 42 5.5 56 56 W 9 15 29.74 1007 10 16 N/A
6:15 pm 18:15 Mostly Cloudy 60 15.3 42 5.8 53 53 WNW 10 17 29.74 1007 10 16 N/A
6:35 pm 18:35 Cloudy 59 14.8 44 6.4 57 57 NW 8 13 29.77 1008 10 16 N/A
6:55 pm 18:55 Windy with Snow Likely 33 0.7 32 undefined 95 95 N 20 31 29.74 1007 3 5 0.02 0.51
7:15 pm 19:15 Partly Cloudy 59 14.8 43 6.1 56 56 NNW 8 13 29.77 1008 10 16 N/A
7:35 pm 19:35 Partly Cloudy 55 12.9 43 6.2 64 64 N 13 20 29.80 1009 10 16 N/A
7:55 pm 19:55 Sunny 54 12 43 6.3 68 68 N 6 9 29.80 1009 10 16 N/A
8:15 pm 20:15 Partly Cloudy 53 11.4 42 5.4 67 67 N N/A 29.80 1009 10 16 N/A
8:35 pm 20:35 Partly Cloudy 51 10.6 42 5.8 72 72 N N/A 29.85 1011 10 16 N/A
8:55 pm 20:55 Mostly Cloudy 51 10.6 42 5.5 71 71 N N/A 29.85 1011 10 16 N/A
9:15 pm 21:15 Partly Cloudy 49 9.6 42 5.7 77 77 NW 3 6 29.88 1012 10 16 N/A
9:35 pm 21:35 Clear 50 9.9 40 4.4 69 69 NNW 12 19 29.88 1012 10 16 N/A
9:55 pm 21:55 Clear 49 9.3 39 4.1 70 70 NW 8 13 29.88 1012 10 16 N/A
10:15 pm 22:15 Partly Cloudy 47 8.3 39 4 75 75 NW 7 11 29.91 1013 10 16 N/A
10:35 pm 22:35 Clear 47 8.1 38 3.6 74 74 NW 7 11 29.94 1014 10 16 N/A
10:55 pm 22:55 Clear 46 7.8 38 3.5 74 74 WNW 8 13 29.94 1014 10 16 N/A
11:15 pm 23:15 Clear 46 8 38 3.2 72 72 NW 10 17 29.94 1014 10 16 N/A
11:35 pm 23:35 Clear 47 8.2 37 3 70 70 NW 15 24 29.94 1014 10 16 N/A
11:55 pm 23:55 Partly Cloudy 46 8 37 2.8 70 70 NW 12 19 29.94 1014 10 16 N/A

Powered by AerisWeather